sat.trackr.live / text

‹ back to catalog

STARLINK-33548

NORAD 62280 · 2024-237P

PAYLOAD ACTIVE UNKNOWN

§ Identity

Operator
Country
US
Launch date
2024-12-08
Launch site
AFETR
Launch vehicle
Mass (kg)
RCS (m²)

Purposes: comms

External: N2YO · Heavens-Above · Gunter

§ Orbital elements

Epoch: 2026-09-21T11:55:58.728864Z

Period
94.27 min
Inclination
43.0053°
Eccentricity
0.0001434
Mean motion
15.27574831 rev/d
Perigee alt
482.1 km
Apogee alt
484.0 km
Semi-major
6,861.2 km
B*
2.5013e-4
RAAN
179.6840°
Arg perigee
266.3831°
Mean anomaly
93.6857°
Rev number
10,126

§ Raw data

STARLINK-335481 62280U 24237P   26264.49720751  .00006626  00000+0  25013-3 0  99942 62280  43.0053 179.6840 0001434 266.3831  93.6857 15.27574831101262

JSON: /api/v1/satellites/62280 · /tle

For live sub-satellite position, see the globe view (requires WebGL).

§ Visibility from observer

Set your observer location to see the next 7 days of passes ≥ 10°. The values pass through the URL so the page stays shareable.

No JS? Fill the form by hand. The geolocation button needs JavaScript.